{"data":{"norad_id":62441,"intl_designator":"2024-251K","name":"STARLINK-32724","alt_names":[],"object_type":"PAYLOAD","status":"ACTIVE","operator":null,"country":"US","launch_date":"2024-12-29","launch_site_code":"AFWTR","launch_vehicle":null,"mission":null,"orbit_class":"UNKNOWN","rcs_meters":null,"size_class":null,"mass_kg":null,"dimensions":null,"purposes":["comms"],"wikipedia_slug":null,"has_3d_model":false,"image_url":null,"decayed_at":null,"tle_current":{"epoch":"2026-05-24T22:28:34.395744Z","epoch_age_seconds":74480,"freshness":"FRESH","line1":"1 62441U 24251K   26144.93650921  .00018550  00000+0  63681-3 0  9998","line2":"2 62441  53.1612 341.0419 0001030  76.1315 283.9800 15.30202390 79467","mean_motion":15.3020239,"eccentricity":0.000103,"inclination_deg":53.1612,"raan_deg":341.0419,"arg_perigee_deg":76.1315,"mean_anomaly_deg":283.98,"bstar":0.00063681,"rev_number":7946,"period_min":94.105198724726,"perigee_km":474.50203879128,"apogee_km":475.91382784754,"semimajor_km":6853.3449333194,"source":"CELESTRAK","updated_at":"2026-05-25T13:38:19.658865Z"}}}